Wind_Speed
3 5 5 3 0 2 2 2 4 3 3 2 3 4 5 4 4 3 4 4 4 4 4 2 3 4 2 1 2 4 6 7 10 9 9 9 10 11 12 14 14 13 12 14 20 25 25 23 23 21 20 19 18 16 15 14 13 11 8 8 9 8 7 7 7 7 7 6 4 4 4 4 4 5 4 4 5 4 4 4 3 3 4 4 5 6
4 6 3 0 3 3 1 1 1 1 2 4 5 6 6 6 4 4 3 3 3 5 3 2 5 6 2 0 4 4 6 8 11 11 10 10 10 10 11 12 13 12 12 14 20 25 26 26 25 23 22 21 20 19 17 16 14 13 10 9 9 8 8 9 8 7 7 7 6 5 5 5 6 6 5 4 4 4 4 4 4 4 3 3 4 5
6 6 3 4 3 3 2 2 4 4 4 5 5 6 5 5 3 5 5 3 1 4 3 1 6 6 3 2 4 6 7 7 9 10 10 10 10 11 10 11 12 13 14 16 19 24 27 28 27 26 25 23 22 21 19 18 16 15 13 12 10 9 9 10 9 8 8 8 8 7 7 7 7 7 6 6 5 5 5 5 4 3 3 4 3 4
4 2 6 6 3 4 4 4 6 4 4 6 5 6 5 2 3 3 5 4 1 3 4 3 6 7 5 5 6 7 7 5 6 7 8 9 10 10 10 10 12 14 16 17 18 22 27 29 30 29 28 26 25 24 22 21 19 18 16 13 11 10 10 10 10 10 9 8 8 9 9 9 8 7 6 7 7 7 6 5 5 5 5 5 6 6
0 7 6 4 3 5 5 6 7 6 5 6 6 7 5 2 4 4 2 3 3 3 3 5 7 7 6 8 7 7 7 6 6 7 7 9 10 10 11 12 12 14 15 16 18 23 29 32 33 32 31 29 28 27 25 24 22 20 17 15 13 11 11 11 11 10 10 9 8 9 10 10 9 7 7 7 7 7 6 5 5 6 6 6 7 7
2 6 3 3 4 5 6 6 7 6 5 5 7 9 7 4 5 4 2 3 5 5 2 4 7 4 4 6 5 6 7 8 7 7 6 7 9 11 13 14 13 14 15 16 18 22 28 33 34 34 34 33 31 28 27 25 24 22 18 16 15 13 12 12 11 10 11 10 8 9 10 10 10 8 7 7 6 6 6 5 5 6 6 6 6 7
3 4 2 3 4 5 6 6 5 6 7 4 5 8 9 7 6 6 5 5 6 3 2 2 7 4 3 5 5 5 6 8 7 6 6 6 7 10 11 12 12 12 14 16 18 20 23 28 32 36 37 36 33 30 28 27 26 24 21 19 17 15 14 14 12 11 12 11 9 8 9 10 10 9 8 8 7 6 5 5 5 6 6 6 7 7
3 5 4 4 4 5 7 5 5 7 8 1 2 5 9 8 7 7 7 6 5 3 2 5 6 6 6 4 5 5 7 8 8 6 6 6 6 6 7 8 9 9 10 12 15 18 21 23 28 34 38 38 35 32 31 30 28 26 25 22 19 17 15 14 13 12 12 12 11 10 11 12 10 8 9 8 7 7 5 4 4 5 5 6 6 6
3 4 5 5 5 6 4 1 3 8 7 2 3 2 5 5 6 6 7 6 4 3 5 6 5 6 7 3 5 6 8 9 8 6 5 6 5 5 5 6 7 8 10 12 14 16 18 21 25 30 35 38 36 35 33 31 30 29 28 24 21 19 17 15 14 13 13 13 12 12 13 14 12 10 9 8 7 6 5 4 4 4 4 5 5 5
2 1 2 5 6 4 1 6 2 6 4 2 2 3 4 4 5 5 6 6 3 5 8 5 4 6 7 4 6 7 7 7 5 4 4 5 4 3 2 4 7 8 10 12 15 17 18 19 22 24 29 34 36 36 35 34 32 31 30 27 24 21 18 17 16 15 14 15 15 14 15 16 15 13 11 9 8 7 6 5 4 3 4 4 4 4
3 2 1 4 6 2 4 4 2 2 1 4 5 5 5 5 5 5 5 4 5 7 7 3 4 5 6 5 4 3 0 1 0 2 3 3 2 2 4 6 7 9 10 11 13 16 17 18 19 21 24 29 34 36 36 36 35 34 32 29 26 23 20 19 18 17 16 16 17 16 16 16 16 15 13 11 9 8 7 6 5 4 4 4 3 3
5 6 3 3 4 2 1 2 2 1 3 5 6 6 6 5 4 5 5 4 6 7 1 3 3 6 7 5 2 2 3 3 1 2 1 1 3 5 7 8 9 10 11 11 11 11 12 15 18 21 22 24 30 34 36 38 37 35 33 30 28 25 23 21 20 19 18 18 19 18 17 17 16 15 14 12 10 9 7 7 6 6 6 5 4 4
5 5 4 4 5 6 7 5 4 4 5 6 6 6 6 6 5 6 6 5 7 4 4 5 3 5 7 4 2 4 3 2 0 2 2 4 6 7 8 9 9 9 10 9 8 7 6 10 15 18 20 21 25 29 33 37 38 37 34 32 30 27 25 24 22 21 20 19 19 19 19 18 18 16 14 12 11 9 8 8 8 8 7 7 6 5
4 4 6 5 5 5 8 7 4 5 6 8 7 6 6 6 6 7 6 6 7 2 4 4 2 5 7 2 4 4 3 3 2 1 2 4 6 7 7 8 8 9 9 7 6 4 1 6 10 13 16 18 21 24 29 34 37 37 35 34 31 29 27 26 24 23 22 20 19 20 20 20 19 17 16 14 12 10 9 9 9 9 8 8 7 6
5 3 4 3 2 3 7 6 5 4 5 7 6 6 7 6 6 7 6 6 7 2 4 5 3 5 5 1 4 3 4 4 3 2 2 3 4 5 6 8 9 9 9 8 6 5 2 3 7 10 12 14 17 21 26 31 34 35 35 34 32 31 29 28 26 24 23 22 20 20 21 21 20 19 17 15 13 12 11 10 10 10 9 9 8 8
7 4 4 3 2 2 4 3 4 7 6 5 5 7 7 5 6 5 2 3 4 4 3 4 4 3 1 4 4 5 5 5 4 4 4 4 5 6 7 9 10 10 11 10 8 6 4 3 5 7 8 8 10 15 19 24 28 31 32 33 32 32 30 29 27 25 24 23 22 22 21 22 21 20 19 17 15 14 12 11 11 11 10 10 9 10
6 3 6 4 2 2 2 2 3 6 5 2 5 8 3 2 6 5 2 2 1 7 7 4 6 5 2 4 7 7 7 7 6 5 5 6 7 7 9 10 11 11 12 12 11 8 6 5 5 5 5 5 5 7 10 14 19 22 25 27 30 31 31 30 28 27 26 25 25 24 22 21 22 21 20 19 18 16 14 13 12 12 12 11 11 12
4 4 4 4 3 4 2 2 3 4 5 4 5 4 1 1 4 5 5 3 5 8 7 5 8 8 6 4 7 9 8 8 7 6 7 7 7 8 10 10 10 11 12 13 13 11 9 8 7 6 5 4 5 5 5 7 10 13 16 19 24 28 30 29 28 28 28 27 27 26 24 23 22 21 21 21 20 18 17 16 15 14 14 13 13 14
3 6 4 4 2 4 4 4 4 4 5 6 4 1 2 5 6 5 6 6 8 8 7 7 9 8 8 5 6 9 10 9 8 7 8 7 8 8 9 10 10 11 12 14 15 14 12 10 9 9 8 7 6 6 6 6 6 7 9 13 18 23 27 28 30 31 30 30 30 29 28 26 24 23 22 21 21 21 20 19 18 17 17 15 15 16
2 5 2 3 3 2 4 6 7 5 6 4 4 4 4 5 6 6 5 6 8 8 8 9 9 7 6 4 5 8 10 10 9 8 7 8 8 8 8 9 10 12 13 13 15 15 14 13 11 11 11 10 10 10 9 8 7 7 7 8 11 16 21 24 28 31 32 32 32 31 30 28 27 25 24 23 22 21 21 21 20 20 19 18 17 17
2 4 5 3 4 3 5 4 4 5 3 4 6 7 6 4 4 5 7 7 7 8 8 8 9 7 1 2 3 6 10 10 10 9 8 8 9 8 8 8 9 12 13 13 15 16 17 17 15 14 13 12 11 11 10 10 9 10 8 8 9 11 14 16 20 25 28 31 32 33 32 31 30 28 27 26 25 23 22 21 21 21 21 20 20 19
2 3 6 5 4 6 3 3 3 6 4 5 6 7 7 6 6 7 9 8 6 8 9 8 10 7 2 3 2 5 10 10 10 10 8 9 9 8 8 8 9 11 12 13 15 16 17 18 18 18 17 15 14 12 10 9 7 7 6 7 8 10 12 14 16 18 20 23 26 29 31 32 32 32 31 30 28 26 25 24 23 22 22 21 21 20
2 3 6 7 8 8 1 5 2 3 4 6 6 6 7 6 7 9 9 7 6 8 7 7 10 5 4 3 1 5 10 10 11 10 9 10 9 8 8 8 9 11 12 13 14 15 16 17 17 19 19 18 17 15 13 11 9 7 6 4 3 6 8 10 12 14 15 17 18 20 24 26 28 31 32 32 32 30 29 28 27 25 24 23 23 22
1 3 6 7 8 8 3 3 3 2 3 7 7 6 6 6 7 8 8 8 7 8 8 8 10 5 5 4 1 5 9 10 10 9 9 9 8 7 8 8 8 9 10 11 12 13 14 14 15 16 17 17 17 16 15 13 11 9 8 7 4 3 4 4 6 8 11 13 13 13 16 19 21 24 26 27 28 29 30 30 30 30 29 27 26 26
2 4 4 6 7 7 6 5 5 5 6 7 6 4 4 7 7 6 7 7 7 11 13 10 10 6 4 6 4 6 8 9 10 9 8 9 8 7 7 7 7 8 8 9 10 11 12 12 13 13 14 14 14 15 15 14 13 11 10 8 6 3 2 3 3 4 7 9 10 10 12 16 18 18 20 23 25 27 29 29 30 31 31 29 28 28
4 5 4 6 7 6 7 6 3 2 4 5 4 3 4 7 8 6 7 8 9 11 12 10 10 7 4 8 7 8 8 8 10 10 9 9 9 9 8 7 7 7 7 8 8 9 10 11 11 12 12 11 12 12 12 12 12 11 9 8 7 6 4 2 1 1 3 4 6 7 10 13 15 15 17 21 23 25 25 24 24 26 26 26 25 26
5 5 6 9 10 8 9 8 4 5 6 6 5 6 5 5 6 6 7 9 9 10 11 11 12 11 5 8 10 10 9 9 10 10 10 11 11 10 10 9 8 7 6 7 7 8 9 9 9 10 9 10 9 9 9 9 9 8 7 7 5 4 4 3 3 2 1 1 3 4 6 10 12 13 16 18 18 18 18 17 18 19 20 20 19 21
5 6 8 11 12 12 13 12 7 6 9 12 11 10 8 6 7 8 9 9 9 9 10 10 12 13 10 8 9 10 9 9 10 11 11 11 11 11 10 10 9 8 7 6 6 7 7 8 8 8 8 8 8 7 7 7 7 6 6 6 6 5 5 5 5 5 4 3 3 4 4 6 7 9 11 13 12 14 14 14 15 16 17 17 16 18
5 7 8 10 12 13 13 12 9 8 10 12 12 12 12 10 10 10 11 12 11 10 11 11 12 12 10 8 9 10 10 11 10 9 9 9 11 11 11 11 10 9 8 7 6 6 6 6 6 7 7 7 6 7 7 6 7 8 8 8 8 8 8 8 7 7 7 7 7 7 7 7 8 8 9 9 8 9 11 11 12 13 15 16 17 18
4 5 6 9 12 13 13 13 11 10 11 13 14 14 14 14 14 13 13 14 14 15 14 12 13 11 8 9 9 4 4 6 6 5 8 10 12 12 12 11 10 9 7 6 5 5 4 4 5 6 7 7 6 7 7 7 8 9 9 10 12 12 11 11 11 11 10 10 10 11 11 11 11 11 11 11 11 10 10 11 12 12 12 13 15 16
3 3 2 5 10 11 13 14 13 12 13 15 15 15 15 15 15 14 14 12 13 14 13 12 12 10 8 13 12 3 2 2 3 6 9 11 12 12 12 11 9 8 7 6 5 4 4 4 4 5 6 7 8 8 8 8 9 10 11 12 13 14 14 14 14 14 13 13 13 13 13 13 13 14 14 14 15 14 14 15 15 14 14 14 14 15
3 5 3 5 9 9 10 13 13 12 14 16 16 16 15 15 13 13 12 10 10 11 11 11 12 10 8 12 16 12 7 7 8 8 10 10 11 13 12 11 9 8 6 5 4 3 3 4 4 5 5 6 7 8 8 9 9 10 12 13 14 14 15 15 16 16 16 16 16 15 14 14 14 14 15 15 16 16 16 17 18 18 17 17 17 15
4 6 5 7 9 9 8 8 8 8 10 12 10 10 14 16 15 15 14 13 13 12 10 10 9 6 4 4 9 12 12 11 10 9 10 11 12 13 12 11 9 7 6 4 3 3 3 3 4 5 6 7 7 7 9 10 11 12 13 14 15 15 16 15 16 16 16 17 17 16 17 16 15 14 14 15 16 17 17 18 19 19 19 19 20 18
5 6 6 7 8 9 7 4 4 7 9 5 1 0 6 10 12 14 13 13 12 10 8 9 9 7 6 5 7 10 9 6 5 6 8 10 12 12 11 9 8 6 4 3 2 2 3 3 4 5 6 7 8 10 12 12 13 14 15 16 16 16 17 16 15 15 17 17 17 17 17 17 16 16 16 17 17 18 19 19 19 19 19 19 20 21
5 6 6 6 7 8 6 4 6 8 5 2 4 3 1 3 6 9 9 6 5 6 7 9 10 8 7 6 6 6 4 2 3 5 7 9 10 11 10 8 5 3 2 1 1 2 3 4 5 5 6 7 9 11 12 12 13 15 16 17 18 19 19 18 17 17 18 19 19 19 19 18 17 17 18 19 19 20 20 20 20 20 20 19 19 19
6 6 6 6 6 7 6 6 8 5 3 2 1 2 1 3 4 6 6 2 2 3 4 4 4 3 1 1 2 3 4 5 5 5 5 6 8 9 8 5 2 0 1 2 3 4 5 6 6 7 8 9 9 10 10 11 12 14 16 18 20 20 20 20 20 21 21 21 21 22 21 21 20 19 18 18 18 19 20 20 21 20 20 21 19 17
8 7 6 6 7 7 8 9 8 8 7 6 4 1 1 2 2 3 5 2 3 3 2 2 1 1 0 2 2 2 5 7 7 6 7 7 6 5 3 1 1 2 4 4 5 5 6 7 7 8 9 10 10 10 11 12 12 13 15 17 19 20 20 20 20 21 21 21 21 23 24 24 23 20 18 17 17 18 19 20 21 21 20 21 19 16
7 7 6 7 6 6 8 9 8 10 9 3 2 4 3 2 2 3 5 3 3 4 3 2 2 2 1 0 0 2 6 8 7 6 7 6 4 2 2 3 4 5 5 6 6 6 7 8 9 10 11 12 13 13 13 13 13 14 15 15 17 18 18 19 20 22 21 20 20 22 24 24 23 21 19 18 17 17 18 19 21 20 19 19 17 16
5 6 6 7 7 6 8 8 8 9 6 2 5 3 3 2 2 3 5 4 2 5 4 3 3 3 3 3 4 4 6 8 7 6 7 4 4 4 5 6 6 7 7 7 8 8 9 10 12 13 13 14 14 15 14 15 15 15 16 16 17 17 17 20 22 22 22 22 23 24 24 24 23 21 20 19 19 18 18 19 20 19 17 16 16 17
6 5 6 8 8 8 8 8 7 7 3 3 4 3 4 3 1 4 6 3 4 8 7 5 5 5 5 6 6 5 7 7 5 1 5 7 7 6 7 8 9 10 10 10 10 10 12 13 13 14 14 14 16 16 17 17 17 17 18 18 18 19 20 22 23 22 23 24 24 24 24 23 22 21 21 20 19 18 18 18 19 18 17 16 16 17
6 5 6 7 8 9 10 9 8 6 1 5 4 4 4 1 3 6 5 2 6 10 10 9 8 8 7 8 7 7 7 7 8 9 10 10 10 9 9 10 10 12 12 12 14 15 15 15 15 16 16 16 17 17 18 18 18 18 19 19 20 21 24 25 25 25 25 24 23 22 22 21 20 20 20 20 19 19 19 18 18 17 17 19 19 18
5 5 6 7 8 8 8 7 8 5 3 7 5 3 2 2 4 3 4 5 8 11 12 11 11 10 10 9 9 9 10 11 12 13 13 14 14 13 13 14 14 15 15 17 18 19 19 18 18 18 18 17 17 18 18 18 19 19 19 20 21 24 26 26 26 27 27 24 22 21 21 21 20 20 20 19 18 19 19 18 17 17 19 21 20 19
3 4 6 6 6 7 7 8 9 5 4 8 6 2 1 3 5 6 8 10 11 12 12 11 11 10 11 11 11 12 13 13 13 13 14 15 16 16 16 16 17 18 18 19 20 20 20 20 20 19 19 19 19 19 19 20 21 21 21 22 24 27 28 28 29 29 27 23 22 21 22 22 21 20 19 18 19 19 19 18 18 19 20 20 18 18
4 4 6 5 3 4 6 5 3 1 2 5 6 4 3 6 9 11 13 14 13 11 10 9 9 9 10 11 13 14 15 15 15 15 15 16 16 16 17 18 18 19 19 19 19 18 19 20 20 20 20 20 20 20 21 21 22 22 22 23 25 27 28 28 28 26 24 23 23 23 23 22 21 21 20 20 21 19 18 19 19 20 20 18 17 18
1 2 4 5 3 4 7 8 7 8 9 9 9 8 10 12 12 12 13 14 14 12 11 11 12 12 11 12 14 14 15 16 17 17 17 18 18 19 20 20 20 21 20 20 19 18 18 20 20 20 20 20 20 22 22 22 22 23 23 23 24 25 25 25 24 24 23 23 23 23 23 22 22 21 20 20 20 18 18 19 20 20 20 18 18 19
4 4 5 6 6 9 11 11 11 13 14 13 13 14 15 14 12 11 12 13 14 14 14 15 15 16 16 16 16 16 16 17 18 18 19 20 21 22 22 23 23 22 22 21 20 19 19 20 20 20 20 20 21 21 22 21 22 23 23 23 24 24 24 24 24 24 24 23 23 23 22 22 22 21 20 19 18 18 19 20 19 19 20 19 21 26
3 3 5 7 8 8 7 6 8 12 15 16 17 17 16 15 13 13 14 15 15 15 16 16 17 18 19 18 19 20 20 20 20 21 21 21 22 23 23 23 23 22 22 22 21 21 21 21 20 19 20 21 21 21 21 21 21 22 23 23 23 23 23 23 24 24 24 24 23 22 21 21 21 20 19 20 20 19 19 19 18 19 21 24 28 29
3 3 5 8 8 8 9 11 14 17 18 17 17 17 16 15 16 17 18 17 17 17 18 18 19 19 20 20 21 23 23 23 23 23 23 23 22 22 23 23 23 22 22 22 21 21 21 21 21 21 21 22 22 21 20 20 20 21 22 21 21 21 22 23 23 24 24 23 23 22 21 21 21 21 22 22 20 18 16 17 21 25 27 28 26 24
5 5 6 7 8 9 10 12 14 15 15 16 17 17 18 18 19 21 21 21 21 22 22 22 22 21 22 22 23 24 25 25 24 24 24 24 24 24 24 24 24 23 23 22 21 21 21 21 22 22 22 22 21 20 20 20 20 20 19 19 20 21 22 22 22 21 20 21 22 23 22 21 21 21 20 18 17 19 22 25 26 26 25 21 19 18
6 6 6 6 7 8 8 11 13 12 12 16 19 21 22 23 24 24 25 25 25 24 24 25 25 25 25 25 24 24 25 25 24 23 24 24 24 25 24 24 24 24 24 23 22 21 21 21 21 20 21 21 20 19 19 18 18 18 17 18 19 19 18 16 15 14 14 17 19 21 20 19 19 19 22 27 30 32 31 28 25 23 23 21 20 20
5 6 6 7 8 10 13 17 19 17 17 20 24 25 26 26 26 25 25 25 24 24 24 24 25 25 25 25 24 23 24 24 24 24 24 25 25 25 25 24 24 25 24 23 22 21 21 21 20 19 20 20 19 19 18 17 17 19 17 15 14 11 9 9 10 10 10 12 14 16 19 22 26 29 32 33 32 31 30 29 26 24 25 24 23 22
Wind_Direction
235 234 224 237 249 57 45 340 333 352 336 286 248 238 237 230 201 132 98 73 15 294 206 147 275 251 260 79 134 201 209 224 225 215 219 216 212 212 208 208 199 193 184 182 200 203 198 202 201 198 199 198 197 197 200 207 211 211 217 226 231 224 198 183 184 184 182 180 184 177 170 157 143 145 142 133 128 135 150 150 147 154 170 192 211 212
226 243 221 71 28 44 77 201 220 253 254 239 238 226 220 230 202 116 100 94 30 296 208 143 262 243 233 180 138 180 208 220 223 219 223 223 224 224 219 217 206 195 186 189 207 209 202 205 207 203 204 204 201 202 204 209 214 214 216 223 229 225 199 180 176 180 182 178 177 174 165 152 144 145 138 138 144 139 136 136 132 131 142 162 189 191
220 236 133 102 82 105 142 192 203 215 229 228 230 231 224 220 196 125 122 134 69 287 254 166 272 256 236 228 173 188 210 214 219 223 227 229 232 233 229 225 215 204 196 195 207 211 207 208 211 209 209 209 207 207 208 211 215 216 217 220 223 221 202 183 175 178 186 182 174 168 163 153 151 157 153 149 144 129 120 117 106 101 113 117 122 135
227 161 107 111 142 166 166 180 200 206 213 224 223 227 223 180 224 198 143 149 140 291 294 304 280 264 235 222 205 198 205 204 210 224 233 236 239 239 239 236 225 216 208 202 206 213 214 212 213 213 212 212 212 211 211 212 215 216 217 219 219 214 201 188 180 182 187 184 172 165 164 158 157 161 151 140 132 122 116 105 91 82 91 105 110 113
281 86 100 139 185 208 198 178 201 222 207 208 224 241 241 180 242 263 138 162 200 203 266 281 264 254 227 222 213 184 192 210 209 217 230 235 238 239 244 243 236 230 223 213 208 215 222 220 218 216 215 215 215 215 214 214 216 217 216 217 218 212 200 191 186 186 185 183 176 169 167 161 157 154 143 136 130 123 115 103 90 77 77 92 108 117
93 88 130 196 203 217 217 199 206 234 237 204 209 232 253 247 235 249 211 222 241 210 189 285 270 247 181 212 213 170 187 204 198 206 219 225 227 230 239 243 241 237 235 228 217 218 226 227 224 220 218 217 217 217 218 218 218 219 218 217 218 211 200 194 191 189 186 183 184 178 171 165 159 154 150 150 144 132 124 113 98 83 79 82 94 112
94 112 186 221 220 213 223 226 196 221 251 226 189 210 231 242 226 228 227 230 259 251 138 271 276 264 195 203 189 176 202 194 176 189 208 216 219 222 232 240 242 240 237 236 230 224 224 225 226 225 222 219 218 219 220 222 221 219 219 218 217 212 203 197 191 189 187 183 183 180 173 168 163 160 166 168 159 148 141 127 107 91 85 82 86 99
126 147 182 218 234 222 228 227 179 214 248 272 85 200 213 221 215 222 232 235 268 297 200 221 259 273 255 217 162 177 213 197 173 172 193 205 211 219 234 243 250 253 248 243 238 232 226 223 226 229 228 223 219 220 222 223 223 221 220 219 218 214 206 201 195 191 189 182 178 176 171 169 167 168 180 181 169 161 158 142 120 104 95 90 93 99
157 189 198 218 239 237 243 48 144 219 243 28 41 222 206 213 215 224 242 250 266 283 252 221 219 258 259 214 162 186 219 213 183 164 181 190 194 214 245 263 273 278 271 261 253 244 235 227 225 229 234 231 223 221 224 225 224 223 222 219 218 215 209 205 199 194 191 183 179 179 175 174 175 177 184 187 184 181 174 164 150 129 113 104 106 108
153 217 226 241 251 251 18 46 55 239 243 89 144 186 176 193 208 225 248 260 242 248 266 241 196 257 269 226 191 195 221 226 185 158 174 176 183 209 275 299 298 296 287 275 266 258 247 233 226 225 231 234 229 223 224 227 226 225 224 220 217 215 212 210 204 198 194 186 181 185 185 182 184 188 190 191 196 199 192 188 183 160 141 129 124 122
138 142 208 248 260 310 55 65 36 280 193 150 184 194 192 200 209 228 244 264 254 246 258 225 189 255 273 247 221 196 115 8 145 192 179 172 204 316 339 325 318 313 304 294 281 271 257 239 226 218 217 228 232 226 223 226 227 226 225 221 217 215 213 214 209 201 197 191 187 189 192 190 192 195 197 200 205 209 207 209 208 196 180 166 156 153
181 191 183 203 231 245 200 175 139 168 194 197 213 220 222 218 216 233 228 223 251 253 205 123 177 238 257 253 215 111 82 62 317 264 252 302 324 346 343 335 333 326 317 308 297 286 264 234 218 211 208 219 230 227 222 224 226 226 224 221 218 215 214 216 214 206 200 197 193 194 196 196 199 201 202 207 214 217 219 220 219 210 202 198 194 187
216 197 143 151 187 211 231 217 165 178 206 219 229 229 236 237 226 239 242 231 247 247 116 120 176 231 251 256 125 121 119 103 53 312 329 338 343 347 342 339 338 332 330 324 312 305 267 220 207 206 205 214 228 229 223 224 226 225 223 221 219 217 215 217 216 210 206 201 197 199 200 200 203 206 207 210 217 226 227 223 225 222 213 212 215 214
236 163 148 175 168 189 232 233 205 198 202 217 229 231 243 250 244 244 248 250 253 224 116 131 185 239 249 243 89 103 102 94 105 49 360 358 355 349 344 347 350 349 350 349 345 346 283 201 198 201 198 204 221 226 222 223 226 225 222 220 220 220 219 219 219 215 211 207 202 202 203 204 206 208 210 211 214 225 226 223 232 232 217 215 223 226
264 202 158 187 130 168 225 251 288 284 224 221 235 243 249 255 258 261 261 264 265 236 130 143 188 246 247 121 81 98 114 117 124 101 62 34 20 10 9 9 8 7 10 15 22 26 41 168 181 187 186 196 215 222 221 223 225 224 222 220 219 220 221 221 221 220 217 214 208 206 206 208 209 211 213 214 214 222 226 228 239 240 225 219 220 221
265 258 98 81 73 189 234 268 295 279 246 219 232 245 252 259 259 268 295 315 304 284 219 187 219 255 206 124 125 135 138 137 129 116 101 75 55 43 37 30 22 20 22 28 37 44 54 118 150 163 173 190 214 223 224 225 227 227 225 223 221 221 223 224 224 223 223 220 216 213 210 211 213 214 215 217 219 223 226 231 241 245 239 228 218 222
254 247 105 112 133 139 295 298 233 260 266 191 225 244 253 298 272 263 253 97 289 269 258 234 243 247 210 173 155 153 153 147 142 133 114 91 77 67 53 39 31 32 33 35 43 50 61 86 108 126 147 162 186 206 217 225 231 234 232 229 226 224 225 228 227 227 227 226 224 221 217 215 216 217 219 222 225 227 229 235 241 245 247 239 227 231
280 264 156 171 177 113 84 273 213 242 271 247 239 244 157 249 257 252 259 238 229 255 256 230 238 247 250 218 155 164 170 157 151 139 122 110 96 79 63 48 39 39 41 44 47 49 58 76 90 100 114 133 153 167 185 206 222 232 234 233 232 230 230 232 232 231 231 230 230 229 225 222 221 222 223 226 230 232 233 237 241 244 249 248 240 241
285 266 188 170 214 144 152 232 220 189 231 266 286 280 227 251 241 227 249 257 251 259 262 242 238 246 256 238 171 182 183 164 154 145 134 120 100 82 67 53 44 43 44 49 52 51 57 72 93 106 110 117 127 136 150 172 194 211 222 228 232 233 234 234 235 236 235 234 235 234 232 230 228 227 228 229 233 236 237 239 242 245 249 251 249 247
241 263 234 145 144 173 204 228 238 207 189 230 257 231 233 268 270 254 251 260 263 264 269 265 255 250 262 260 213 199 181 164 156 145 133 115 96 80 65 53 47 47 46 50 56 59 62 69 86 102 109 115 122 131 139 147 158 173 194 212 225 235 238 238 239 241 241 239 238 240 239 237 236 234 234 234 235 238 242 243 245 247 250 252 252 250
221 245 256 200 147 223 242 224 270 285 230 222 237 233 230 240 262 267 255 251 262 265 267 271 266 263 331 10 258 195 164 159 157 144 132 117 101 83 71 60 56 56 52 54 59 61 63 65 71 80 87 98 109 120 129 137 151 166 177 183 194 215 231 238 243 248 250 247 245 245 245 244 243 242 241 240 240 241 244 247 248 250 251 253 254 252
255 239 255 255 225 241 249 79 15 339 325 287 267 254 253 251 250 258 255 244 246 262 268 269 270 275 50 32 293 161 150 154 152 144 135 123 109 93 82 74 70 69 63 62 63 63 64 64 67 71 75 83 88 92 101 108 118 141 163 176 185 197 209 219 228 237 245 250 251 250 249 249 248 247 247 247 246 247 248 249 250 251 251 253 254 254
333 269 257 258 257 262 344 78 57 322 306 290 280 273 275 268 255 256 261 262 255 261 273 272 270 276 87 67 312 147 149 150 146 143 138 127 114 104 99 91 85 81 75 73 71 69 69 68 68 70 72 76 80 82 87 89 92 104 114 117 156 196 206 218 224 222 226 237 247 249 250 252 252 251 252 252 252 252 252 252 253 254 255 255 255 255
180 256 255 252 254 258 234 136 152 186 249 261 254 253 268 272 270 270 277 287 277 263 267 264 260 255 108 101 111 138 143 144 142 141 139 133 124 117 115 107 98 90 85 81 78 75 74 73 72 70 69 71 74 77 79 79 84 95 100 98 107 173 194 212 235 239 233 234 242 245 245 249 252 252 253 255 256 257 256 256 256 257 258 259 258 257
217 248 249 258 257 245 226 205 194 193 215 246 252 245 267 275 276 275 273 275 264 258 262 261 262 260 126 127 159 156 153 153 149 147 145 142 142 139 130 122 113 105 97 90 84 79 76 73 71 70 70 69 70 73 73 72 73 76 80 82 80 82 121 172 209 238 239 238 243 245 243 244 248 250 250 250 252 254 256 257 258 260 261 261 260 259
251 264 245 257 259 248 245 242 239 244 231 229 238 235 251 261 260 264 264 257 250 256 258 255 265 269 145 146 175 175 172 173 161 158 161 158 157 157 151 145 134 120 110 102 92 84 78 73 70 68 68 67 66 67 67 66 65 66 68 70 69 63 58 66 129 201 222 238 246 247 248 247 246 250 252 250 249 249 251 253 256 257 259 260 259 258
251 265 250 254 260 264 272 280 330 342 289 264 256 243 231 231 243 255 260 257 261 265 257 249 262 268 215 177 190 186 186 190 175 170 176 173 169 166 161 157 150 139 126 109 97 90 82 75 70 67 65 64 62 61 62 61 57 56 56 50 43 39 34 23 8 360 336 290 264 252 254 254 249 250 252 251 249 248 248 249 249 249 251 252 248 247
250 254 248 252 257 264 275 283 301 307 279 273 273 263 249 233 232 241 250 261 275 272 260 260 266 263 249 229 218 203 191 189 186 189 191 183 175 171 165 161 156 150 139 122 105 92 82 74 68 63 59 57 53 50 51 51 41 31 27 21 8 353 348 345 342 338 332 315 288 265 262 264 258 253 251 250 248 249 248 247 246 245 243 241 238 243
260 259 254 255 259 263 268 271 272 268 263 265 266 264 261 254 247 246 248 256 264 261 261 280 281 262 252 255 246 226 212 210 209 209 204 188 179 176 172 171 167 158 146 132 115 97 81 70 59 50 45 45 42 36 31 29 17 6 358 352 345 339 336 335 333 329 323 314 301 285 274 269 265 263 265 268 268 265 259 253 248 243 240 240 245 252
273 270 267 265 267 268 267 264 259 255 257 259 257 256 257 257 255 254 253 254 257 259 264 279 281 266 260 273 273 248 206 224 219 195 193 192 186 182 182 181 172 159 147 130 113 100 83 64 51 41 27 12 6 5 4 2 0 356 349 341 337 336 334 330 330 328 323 318 310 301 294 285 277 271 268 269 271 272 272 270 265 259 253 249 248 250
248 275 307 277 271 269 267 263 256 251 256 259 256 255 256 257 254 253 255 254 253 260 264 265 267 265 260 263 263 254 114 186 200 191 197 196 189 187 188 183 171 157 146 128 109 95 74 58 43 35 22 2 352 351 346 341 342 341 336 332 333 332 330 328 327 325 322 319 314 311 306 300 294 288 280 274 270 267 268 271 274 274 269 262 255 249
236 262 267 262 266 268 265 260 257 261 267 263 257 253 251 251 251 251 252 246 241 250 257 256 259 264 261 253 250 249 246 241 237 227 211 194 189 193 191 182 171 157 144 129 109 89 66 45 24 15 10 358 351 350 342 336 334 332 326 325 328 328 328 328 326 322 321 319 315 313 309 303 299 294 288 284 278 271 267 266 267 269 270 270 269 259
253 264 266 261 266 272 271 268 273 281 276 267 258 245 240 244 250 252 252 249 244 244 251 255 261 281 310 275 252 256 259 257 255 244 219 195 189 191 187 176 166 153 140 128 103 76 47 24 8 353 347 344 341 336 334 332 330 327 324 324 326 327 327 327 324 321 320 318 316 312 306 301 297 292 286 285 282 278 274 270 266 265 265 265 267 263
254 260 266 264 265 269 270 277 285 268 259 264 15 217 244 255 262 261 262 262 259 258 266 274 278 287 295 282 268 270 271 266 255 232 209 197 193 189 180 168 158 148 138 125 90 48 19 360 346 337 336 334 329 326 329 330 327 325 325 325 324 324 324 323 320 316 316 317 315 308 302 298 293 289 285 284 283 281 278 275 271 270 267 263 260 258
246 247 257 260 261 267 269 258 255 257 258 65 75 85 275 281 280 278 279 281 289 289 284 284 284 281 277 271 263 262 249 192 185 197 195 196 195 185 172 162 155 148 137 107 24 356 348 341 331 327 326 323 323 326 329 327 323 321 321 321 321 321 321 320 316 314 314 314 311 306 301 297 292 288 286 284 283 281 278 275 272 271 269 264 255 251
244 245 252 255 251 254 255 242 243 267 348 20 192 153 167 245 252 265 261 233 54 339 294 290 294 299 301 216 192 191 180 164 157 162 171 178 180 178 175 171 161 123 340 331 332 334 330 326 323 318 316 317 318 320 318 314 312 313 315 317 319 320 320 318 316 316 315 312 307 304 300 297 294 289 284 280 278 277 276 275 273 270 266 260 252 245
239 246 247 247 245 247 255 253 255 275 286 270 239 153 63 288 278 285 271 236 92 42 343 341 340 348 39 166 158 163 185 184 167 138 126 130 141 158 181 210 321 319 323 322 321 323 321 319 319 313 310 311 310 308 308 306 305 306 308 311 314 315 315 313 312 314 313 308 303 300 298 296 294 289 282 276 273 271 272 273 272 269 263 256 248 241
227 243 244 245 245 243 256 264 264 267 273 280 90 86 56 3 328 303 282 254 113 76 29 7 358 337 320 313 246 215 210 216 207 151 116 103 98 81 325 312 313 312 316 316 313 314 313 309 309 308 305 305 305 305 304 302 299 299 298 301 305 307 307 305 307 309 305 299 296 295 295 293 289 285 280 275 271 269 267 267 267 264 259 251 242 237
212 237 242 248 251 245 254 264 262 263 274 45 72 63 48 26 333 285 257 241 61 42 23 355 345 336 330 344 328 269 238 239 225 154 102 41 355 352 328 316 318 315 312 312 309 307 308 308 309 309 308 307 306 306 304 300 297 294 292 294 297 298 297 299 303 304 299 295 295 294 291 289 285 281 276 273 270 268 266 266 264 258 251 246 241 238
207 225 232 241 248 246 249 257 262 269 291 58 59 32 42 52 340 269 244 234 15 7 357 341 320 313 323 334 321 277 253 258 264 36 32 344 326 333 325 317 318 314 312 312 308 304 306 307 307 307 307 307 306 305 304 300 295 292 291 294 295 294 296 299 299 297 294 293 293 291 289 286 282 278 275 271 269 268 267 266 263 256 248 238 231 230
224 227 236 244 249 250 250 255 263 269 342 61 50 41 47 58 236 249 256 321 352 340 343 339 315 305 314 318 305 278 270 287 309 324 327 317 313 314 311 309 309 308 308 308 307 306 305 303 302 302 303 303 303 302 301 298 293 290 291 292 291 292 296 298 297 294 293 290 287 286 285 280 275 272 270 268 268 267 265 263 260 253 241 231 228 231
245 239 245 248 252 256 253 258 266 263 70 53 31 49 53 278 243 260 321 329 324 324 331 328 314 305 304 301 296 289 287 292 300 304 305 305 306 306 307 308 307 307 308 307 306 307 306 303 301 300 300 300 299 297 295 292 288 287 288 287 288 292 296 296 294 294 292 286 281 281 280 275 270 267 266 265 264 262 260 258 252 243 239 240 242 242
263 262 257 248 253 262 253 254 265 255 82 45 12 17 61 308 305 324 317 307 313 319 317 312 310 304 296 291 291 292 293 293 294 295 295 296 297 299 302 304 306 306 306 305 304 304 303 300 298 296 294 294 293 291 290 288 285 285 285 285 287 291 292 291 291 292 289 282 278 277 275 272 268 265 262 261 260 259 256 249 242 242 247 247 242 235
256 261 270 263 259 261 248 251 285 292 71 15 344 316 308 314 314 312 304 299 307 314 308 303 302 296 290 288 288 290 291 290 289 290 290 290 291 294 296 298 299 298 298 297 297 296 295 292 291 289 288 286 286 286 285 284 282 281 281 283 287 290 290 289 289 288 283 277 275 274 273 270 266 262 260 260 258 254 245 238 239 245 245 237 228 222
269 330 304 284 274 278 272 280 303 301 293 307 315 303 300 302 302 301 297 295 298 301 298 294 291 289 286 284 284 286 285 284 285 286 287 288 289 290 291 293 293 294 293 292 291 290 288 286 285 285 283 281 283 284 283 281 279 277 279 283 285 286 285 285 283 279 275 272 270 269 269 267 263 260 259 257 251 241 233 234 237 235 227 217 209 197
289 312 303 283 279 285 278 272 280 287 291 298 300 296 294 294 293 296 295 292 292 293 293 292 290 289 287 285 284 282 279 280 281 281 282 284 285 287 288 289 290 290 290 290 289 288 287 286 285 283 282 282 283 284 283 280 275 275 279 282 282 281 280 280 278 275 271 268 267 266 264 262 260 258 255 247 234 224 226 232 228 218 208 196 182 172
285 317 297 278 277 284 278 270 282 290 295 297 296 293 291 287 286 288 291 293 295 293 292 292 292 290 287 285 283 281 280 279 280 280 280 281 282 284 285 285 287 288 288 289 290 289 288 286 285 284 283 284 286 286 284 280 277 279 283 282 280 280 280 278 276 271 268 267 266 264 260 256 253 248 237 226 218 217 223 223 210 192 178 168 162 159
4 20 308 282 277 279 280 284 290 290 290 292 292 290 288 288 290 290 288 289 292 292 290 289 288 287 286 284 282 282 282 281 280 280 280 280 281 283 283 283 285 287 288 289 289 288 287 286 284 285 286 287 288 288 285 283 283 285 283 281 282 284 283 279 274 269 266 264 260 256 250 244 237 231 225 220 218 213 200 182 167 157 153 153 153 152
322 317 302 298 291 280 278 285 293 295 293 292 291 290 291 293 295 296 294 291 289 288 286 285 283 282 282 282 282 281 280 279 279 279 279 279 279 280 281 284 286 288 289 290 289 288 286 284 284 286 287 288 290 289 287 287 288 285 283 285 289 289 284 279 273 267 261 255 248 243 237 228 222 220 214 199 177 157 144 141 141 141 142 144 145 143
302 295 302 306 292 283 291 303 308 305 296 292 293 295 297 298 298 298 297 294 290 287 286 285 284 280 277 276 276 276 276 277 278 278 279 279 279 280 282 284 287 288 289 289 289 287 285 285 285 285 286 288 288 287 287 288 287 285 288 293 294 292 286 280 273 263 250 240 234 230 224 212 196 179 162 148 140 136 134 133 134 135 135 137 137 136
316 308 311 306 293 291 297 301 301 296 290 291 294 296 298 300 300 299 295 292 290 289 289 288 286 283 279 275 272 270 271 275 277 277 278 279 279 280 282 283 285 287 287 287 286 285 284 284 284 284 286 287 286 286 287 286 284 287 296 303 301 297 288 272 255 233 212 200 192 182 170 158 147 139 135 134 135 135 132 130 130 130 130 131 131 130
Height
1493 1491 1489 1486 1484 1485 1488 1489 1488 1487 1487 1487 1485 1484 1482 1480 1479 1479 1482 1484 1485 1484 1480 1482 1484 1482 1481 1481 1482 1485 1486 1486 1486 1487 1488 1488 1489 1490 1491 1493 1495 1498 1500 1501 1502 1504 1507 1508 1510 1512 1513 1515 1516 1518 1519 1520 1522 1523 1524 1525 1525 1526 1527 1527 1528 1529 1530 1531 1531 1532 1532 1533 1533 1534 1534 1534 1534 1534 1534 1534 1533 1533 1533 1533 1533 1533
1493 1491 1486 1485 1487 1489 1491 1491 1491 1490 1489 1488 1486 1484 1482 1481 1479 1480 1484 1485 1486 1486 1480 1482 1484 1481 1480 1481 1482 1484 1485 1485 1485 1486 1487 1487 1489 1490 1491 1493 1495 1497 1499 1500 1500 1502 1506 1507 1508 1510 1511 1513 1515 1516 1517 1519 1520 1522 1523 1524 1525 1526 1527 1527 1528 1529 1529 1530 1531 1532 1532 1533 1534 1534 1534 1534 1534 1534 1533 1533 1533 1533 1533 1533 1532 1533
1491 1487 1484 1487 1490 1491 1492 1492 1492 1491 1490 1488 1486 1484 1483 1480 1478 1482 1486 1485 1486 1486 1481 1481 1483 1479 1478 1479 1481 1482 1483 1483 1484 1485 1486 1487 1488 1489 1490 1492 1494 1496 1497 1498 1499 1501 1503 1505 1506 1508 1509 1511 1513 1514 1516 1517 1519 1520 1522 1523 1524 1525 1526 1526 1527 1528 1529 1529 1530 1531 1532 1532 1533 1533 1534 1534 1534 1534 1534 1533 1533 1533 1533 1533 1533 1533
1487 1483 1485 1489 1491 1491 1492 1493 1492 1490 1488 1487 1484 1484 1483 1480 1482 1485 1487 1487 1487 1487 1484 1483 1484 1479 1476 1478 1478 1480 1482 1482 1484 1485 1486 1488 1488 1489 1490 1491 1492 1493 1495 1496 1497 1499 1500 1502 1503 1505 1506 1508 1510 1512 1514 1515 1517 1519 1520 1522 1523 1524 1525 1526 1526 1527 1528 1528 1529 1530 1531 1531 1532 1533 1533 1534 1534 1534 1534 1534 1533 1533 1533 1533 1533 1533
1483 1485 1488 1490 1491 1490 1491 1492 1491 1488 1485 1485 1484 1483 1481 1482 1484 1484 1485 1487 1486 1488 1487 1485 1485 1478 1473 1476 1475 1477 1481 1482 1483 1485 1486 1487 1487 1489 1489 1489 1491 1492 1493 1495 1496 1496 1497 1498 1500 1501 1504 1505 1508 1510 1511 1513 1515 1517 1519 1521 1522 1524 1525 1525 1526 1526 1527 1528 1528 1529 1530 1531 1532 1532 1533 1534 1534 1534 1534 1534 1534 1533 1533 1533 1533 1534
1483 1489 1490 1490 1490 1489 1489 1488 1487 1485 1483 1483 1484 1482 1481 1482 1483 1483 1485 1487 1487 1489 1487 1486 1491 1482 1472 1474 1474 1475 1479 1480 1481 1483 1484 1485 1486 1487 1487 1488 1489 1490 1491 1493 1494 1494 1494 1495 1497 1499 1501 1502 1505 1507 1509 1511 1513 1515 1518 1520 1521 1522 1523 1524 1525 1526 1526 1527 1528 1529 1530 1531 1532 1533 1534 1534 1534 1535 1535 1534 1534 1534 1534 1534 1534 1534
1485 1490 1490 1490 1489 1488 1488 1485 1483 1484 1483 1482 1481 1480 1481 1481 1483 1485 1485 1488 1488 1487 1486 1486 1492 1487 1475 1473 1474 1475 1477 1477 1479 1482 1482 1483 1484 1485 1486 1486 1487 1488 1489 1490 1491 1492 1493 1493 1494 1495 1497 1499 1502 1505 1507 1509 1511 1514 1516 1518 1519 1521 1522 1523 1524 1525 1526 1526 1527 1529 1530 1531 1532 1533 1534 1534 1534 1535 1535 1535 1534 1534 1534 1534 1534 1534
1486 1489 1490 1490 1488 1487 1485 1482 1482 1483 1482 1482 1481 1479 1480 1481 1484 1486 1485 1486 1484 1483 1486 1484 1485 1488 1481 1474 1473 1476 1477 1475 1477 1481 1481 1481 1483 1484 1484 1485 1486 1487 1488 1488 1489 1490 1491 1492 1492 1492 1494 1496 1500 1503 1505 1507 1509 1512 1514 1516 1518 1520 1521 1522 1523 1524 1525 1526 1527 1528 1529 1530 1532 1533 1533 1533 1534 1535 1535 1535 1535 1535 1535 1535 1535 1535
1486 1488 1488 1488 1488 1485 1479 1477 1481 1483 1482 1483 1483 1481 1480 1481 1484 1484 1483 1484 1483 1487 1490 1481 1482 1492 1484 1473 1474 1476 1476 1475 1476 1479 1480 1481 1482 1484 1484 1485 1485 1486 1486 1486 1486 1487 1488 1489 1489 1490 1491 1494 1498 1501 1502 1504 1507 1509 1512 1514 1516 1518 1520 1521 1522 1523 1524 1525 1526 1528 1529 1530 1531 1532 1532 1533 1534 1534 1535 1535 1535 1535 1535 1535 1535 1535
1486 1486 1486 1486 1485 1481 1478 1480 1482 1483 1483 1484 1484 1482 1481 1482 1483 1484 1484 1481 1485 1495 1493 1480 1483 1493 1485 1473 1473 1476 1475 1474 1476 1478 1479 1480 1482 1483 1484 1485 1485 1485 1485 1484 1484 1484 1485 1486 1487 1488 1489 1490 1494 1498 1500 1502 1505 1507 1509 1512 1514 1516 1518 1519 1521 1522 1523 1525 1526 1527 1528 1529 1530 1531 1532 1533 1533 1534 1534 1535 1535 1535 1535 1535 1536 1536
1484 1486 1487 1486 1484 1481 1481 1485 1485 1484 1484 1484 1483 1481 1482 1482 1481 1483 1481 1480 1489 1496 1488 1480 1482 1491 1490 1476 1469 1474 1477 1477 1478 1478 1478 1480 1482 1483 1484 1485 1484 1484 1484 1483 1482 1482 1482 1483 1484 1485 1486 1488 1490 1494 1498 1500 1502 1505 1507 1510 1512 1515 1517 1518 1519 1521 1522 1523 1525 1526 1527 1528 1529 1530 1531 1532 1532 1533 1534 1534 1535 1535 1535 1536 1536 1536
1482 1484 1484 1483 1483 1483 1483 1484 1485 1486 1485 1484 1482 1480 1484 1485 1484 1485 1483 1487 1498 1495 1484 1481 1482 1490 1494 1479 1469 1475 1478 1479 1480 1479 1480 1481 1482 1483 1484 1484 1484 1483 1482 1482 1481 1480 1479 1480 1481 1482 1484 1485 1487 1490 1494 1497 1499 1502 1505 1508 1510 1513 1515 1516 1518 1519 1521 1522 1523 1525 1526 1527 1528 1529 1530 1531 1532 1533 1533 1534 1534 1535 1535 1535 1536 1536
1478 1476 1478 1481 1482 1483 1482 1481 1484 1485 1484 1483 1481 1482 1488 1490 1491 1495 1490 1489 1492 1487 1482 1482 1485 1491 1488 1474 1471 1476 1478 1479 1482 1482 1482 1483 1484 1484 1484 1484 1484 1483 1482 1481 1480 1479 1477 1478 1480 1480 1482 1483 1485 1488 1492 1495 1497 1500 1503 1506 1508 1510 1513 1514 1516 1518 1519 1521 1522 1524 1525 1526 1527 1528 1529 1530 1531 1532 1533 1534 1534 1535 1535 1535 1535 1536
1477 1473 1476 1480 1480 1481 1481 1478 1480 1482 1481 1482 1480 1483 1490 1492 1497 1501 1493 1486 1485 1483 1482 1483 1489 1492 1481 1471 1473 1477 1479 1481 1483 1484 1485 1485 1485 1485 1485 1484 1484 1482 1482 1480 1479 1478 1477 1478 1479 1480 1481 1482 1483 1486 1490 1492 1495 1497 1500 1503 1506 1508 1511 1512 1514 1516 1518 1519 1521 1522 1524 1525 1526 1527 1529 1529 1530 1531 1532 1533 1533 1534 1535 1535 1535 1535
1484 1481 1478 1478 1480 1481 1480 1476 1476 1476 1476 1477 1475 1478 1484 1486 1493 1497 1490 1486 1484 1483 1486 1489 1492 1488 1479 1477 1477 1477 1481 1483 1483 1484 1485 1486 1486 1485 1485 1484 1483 1482 1481 1480 1479 1478 1478 1478 1479 1480 1481 1482 1482 1485 1488 1490 1493 1496 1498 1501 1504 1507 1508 1511 1512 1514 1516 1518 1520 1521 1522 1524 1525 1526 1528 1529 1530 1530 1531 1532 1533 1533 1534 1535 1535 1535
1486 1482 1476 1478 1480 1479 1479 1477 1476 1477 1476 1475 1473 1476 1480 1478 1480 1487 1490 1490 1489 1488 1488 1490 1486 1476 1474 1479 1477 1478 1481 1481 1483 1485 1484 1486 1486 1485 1486 1484 1484 1483 1481 1480 1479 1479 1479 1479 1479 1480 1480 1481 1483 1484 1487 1489 1492 1494 1497 1500 1503 1505 1507 1509 1511 1513 1515 1517 1518 1519 1521 1522 1524 1525 1526 1527 1528 1529 1530 1531 1532 1532 1533 1534 1534 1534
1486 1481 1475 1478 1480 1478 1480 1478 1477 1479 1478 1477 1477 1478 1475 1471 1474 1484 1493 1494 1496 1497 1487 1481 1480 1473 1473 1478 1475 1477 1481 1480 1483 1484 1483 1486 1486 1486 1487 1486 1485 1485 1483 1481 1480 1480 1480 1479 1479 1480 1480 1482 1483 1485 1487 1489 1491 1494 1496 1499 1501 1504 1506 1508 1511 1512 1514 1515 1517 1518 1519 1521 1522 1523 1525 1526 1527 1528 1529 1530 1530 1531 1532 1533 1533 1533
1485 1482 1474 1475 1478 1479 1481 1480 1477 1478 1478 1477 1479 1476 1471 1473 1476 1481 1491 1492 1494 1496 1483 1477 1483 1479 1476 1479 1476 1476 1479 1480 1481 1482 1483 1486 1486 1487 1488 1488 1488 1486 1485 1484 1481 1481 1480 1479 1480 1480 1481 1483 1484 1485 1487 1489 1491 1493 1495 1498 1500 1503 1505 1507 1509 1511 1512 1514 1515 1516 1517 1519 1520 1522 1523 1524 1525 1526 1527 1528 1529 1530 1530 1531 1532 1532
1487 1484 1476 1473 1477 1478 1478 1480 1478 1477 1477 1476 1476 1473 1475 1483 1483 1481 1490 1493 1492 1493 1485 1478 1480 1478 1473 1473 1474 1475 1477 1479 1481 1481 1483 1484 1486 1488 1488 1489 1489 1488 1487 1486 1484 1483 1482 1481 1480 1480 1482 1483 1484 1485 1487 1488 1490 1492 1494 1497 1499 1501 1503 1506 1507 1508 1510 1512 1513 1514 1516 1517 1518 1520 1521 1522 1523 1524 1525 1526 1527 1528 1528 1529 1530 1530
1486 1488 1482 1474 1476 1478 1476 1477 1477 1475 1475 1476 1475 1473 1474 1480 1481 1480 1484 1487 1489 1493 1489 1483 1480 1475 1467 1464 1466 1470 1473 1477 1480 1481 1483 1485 1487 1489 1489 1490 1490 1489 1488 1487 1486 1486 1484 1483 1482 1482 1482 1482 1483 1485 1486 1488 1489 1491 1493 1495 1498 1500 1502 1504 1505 1506 1508 1510 1511 1512 1513 1515 1516 1517 1519 1520 1521 1522 1522 1524 1524 1525 1526 1527 1528 1529
1485 1490 1489 1477 1474 1479 1477 1474 1475 1473 1474 1475 1476 1475 1476 1477 1478 1479 1478 1477 1483 1489 1489 1489 1484 1473 1466 1465 1465 1467 1472 1476 1479 1481 1483 1486 1488 1489 1491 1491 1491 1490 1490 1489 1489 1488 1486 1486 1484 1484 1484 1483 1484 1485 1486 1488 1488 1489 1492 1494 1496 1498 1500 1502 1503 1504 1506 1508 1509 1510 1511 1512 1514 1515 1516 1517 1518 1519 1520 1521 1522 1523 1524 1524 1526 1526
1486 1489 1489 1482 1477 1478 1475 1475 1477 1478 1477 1476 1475 1474 1474 1476 1479 1485 1483 1475 1477 1482 1481 1485 1483 1471 1468 1472 1468 1467 1473 1476 1478 1481 1484 1486 1488 1490 1491 1492 1492 1491 1491 1490 1490 1489 1488 1488 1487 1486 1486 1486 1486 1487 1488 1489 1489 1490 1492 1494 1495 1496 1497 1499 1500 1502 1503 1505 1506 1507 1508 1510 1511 1512 1513 1514 1516 1517 1518 1519 1519 1520 1521 1522 1523 1524
1490 1488 1488 1486 1480 1475 1474 1478 1481 1481 1480 1479 1478 1475 1473 1474 1478 1485 1485 1477 1477 1478 1475 1479 1482 1474 1471 1474 1472 1471 1475 1477 1479 1482 1483 1486 1489 1491 1491 1492 1492 1492 1492 1492 1491 1491 1490 1490 1490 1489 1489 1488 1488 1488 1489 1490 1490 1491 1493 1494 1495 1495 1496 1498 1499 1499 1500 1502 1504 1504 1505 1506 1508 1509 1509 1511 1512 1514 1515 1516 1517 1518 1519 1520 1521 1521
1491 1489 1488 1486 1478 1472 1473 1477 1479 1482 1482 1480 1478 1476 1477 1477 1476 1479 1480 1478 1481 1481 1479 1484 1484 1475 1473 1476 1476 1476 1477 1479 1481 1483 1484 1487 1489 1491 1492 1493 1493 1493 1493 1493 1493 1492 1492 1492 1492 1492 1491 1491 1491 1491 1491 1491 1492 1492 1493 1494 1495 1495 1496 1497 1498 1499 1499 1501 1502 1502 1502 1503 1505 1506 1506 1507 1509 1510 1511 1513 1514 1514 1515 1517 1518 1518
1491 1488 1488 1489 1485 1481 1480 1479 1480 1481 1480 1478 1476 1477 1479 1478 1478 1481 1480 1480 1484 1481 1478 1484 1481 1471 1472 1477 1478 1479 1479 1480 1482 1484 1485 1487 1489 1491 1492 1492 1493 1494 1493 1494 1494 1493 1493 1493 1493 1493 1493 1493 1493 1493 1493 1493 1493 1493 1493 1494 1495 1495 1495 1496 1498 1499 1500 1501 1501 1500 1500 1501 1503 1504 1503 1504 1505 1507 1508 1509 1510 1511 1511 1513 1514 1515
1491 1487 1488 1492 1491 1490 1487 1482 1480 1478 1476 1476 1478 1481 1482 1480 1480 1482 1481 1481 1483 1477 1475 1481 1476 1468 1472 1477 1477 1479 1480 1480 1482 1484 1486 1487 1489 1490 1491 1492 1493 1493 1494 1494 1494 1494 1494 1494 1494 1494 1494 1494 1494 1495 1495 1495 1495 1495 1495 1495 1496 1496 1496 1496 1497 1498 1498 1498 1498 1498 1498 1499 1501 1502 1501 1501 1503 1504 1504 1506 1507 1507 1508 1509 1510 1511
1490 1487 1487 1489 1487 1485 1481 1476 1477 1480 1479 1479 1480 1480 1481 1482 1482 1483 1483 1481 1478 1474 1474 1474 1470 1469 1473 1476 1476 1478 1478 1479 1481 1483 1484 1486 1488 1489 1490 1492 1492 1493 1493 1494 1494 1494 1494 1494 1494 1494 1494 1495 1495 1495 1495 1496 1496 1496 1496 1497 1497 1497 1497 1497 1497 1497 1496 1496 1497 1497 1498 1499 1499 1499 1499 1500 1501 1501 1501 1502 1504 1504 1505 1506 1506 1506
1490 1489 1487 1487 1485 1482 1479 1476 1479 1483 1484 1482 1481 1480 1480 1482 1483 1485 1485 1481 1476 1478 1476 1468 1466 1472 1473 1472 1474 1477 1477 1478 1479 1481 1483 1485 1487 1489 1490 1491 1492 1492 1493 1493 1493 1494 1494 1494 1495 1495 1495 1495 1495 1496 1496 1496 1496 1496 1497 1497 1497 1497 1496 1496 1496 1496 1496 1496 1497 1497 1498 1498 1498 1498 1498 1499 1498 1498 1498 1499 1500 1501 1502 1503 1503 1503
1491 1490 1485 1485 1487 1483 1480 1481 1482 1484 1485 1483 1482 1482 1481 1482 1483 1485 1485 1481 1479 1481 1478 1470 1470 1475 1473 1469 1471 1474 1476 1477 1478 1479 1482 1484 1486 1488 1489 1490 1491 1492 1492 1493 1493 1493 1493 1494 1494 1494 1495 1495 1495 1495 1495 1496 1496 1496 1496 1496 1496 1496 1495 1495 1495 1495 1495 1496 1497 1497 1497 1497 1497 1497 1497 1496 1496 1496 1496 1496 1497 1498 1498 1499 1499 1500
1492 1489 1485 1485 1487 1485 1481 1481 1481 1484 1485 1483 1482 1481 1481 1481 1481 1482 1482 1480 1479 1479 1476 1475 1477 1477 1474 1471 1470 1473 1476 1477 1478 1480 1482 1484 1486 1487 1488 1489 1490 1491 1492 1492 1493 1493 1493 1493 1493 1494 1494 1494 1494 1494 1494 1494 1495 1495 1495 1494 1494 1494 1494 1494 1494 1494 1494 1495 1495 1495 1495 1495 1495 1495 1494 1494 1494 1494 1494 1494 1494 1494 1495 1496 1496 1496
1494 1490 1488 1489 1490 1487 1483 1480 1480 1482 1483 1482 1481 1479 1479 1480 1480 1480 1480 1480 1481 1479 1478 1480 1482 1480 1476 1473 1472 1474 1476 1478 1479 1480 1482 1483 1485 1486 1487 1488 1490 1491 1491 1492 1493 1493 1493 1493 1493 1493 1493 1493 1494 1494 1493 1493 1493 1494 1494 1493 1493 1493 1493 1493 1493 1492 1493 1493 1493 1493 1493 1492 1492 1492 1492 1492 1492 1492 1492 1492 1492 1492 1492 1493 1493 1493
1493 1491 1489 1492 1492 1487 1482 1481 1481 1481 1482 1481 1480 1480 1481 1481 1480 1480 1480 1479 1481 1482 1482 1482 1481 1477 1473 1472 1471 1472 1475 1476 1477 1478 1480 1482 1484 1485 1486 1488 1489 1490 1491 1491 1492 1492 1492 1493 1493 1493 1493 1493 1494 1494 1493 1492 1492 1492 1492 1492 1492 1492 1491 1491 1491 1491 1491 1491 1491 1491 1490 1490 1489 1489 1489 1489 1489 1489 1490 1490 1490 1490 1490 1490 1490 1490
1492 1490 1489 1490 1490 1485 1481 1482 1484 1486 1487 1483 1478 1478 1479 1479 1478 1478 1477 1476 1477 1479 1480 1479 1476 1473 1472 1472 1472 1471 1472 1474 1475 1476 1479 1481 1482 1484 1485 1487 1488 1489 1490 1491 1491 1492 1492 1492 1492 1492 1492 1492 1493 1493 1492 1491 1491 1491 1490 1490 1490 1490 1490 1490 1490 1489 1489 1489 1489 1488 1487 1487 1487 1486 1486 1486 1486 1486 1486 1487 1487 1487 1488 1488 1488 1487
1492 1492 1490 1487 1488 1486 1483 1486 1491 1493 1489 1480 1474 1475 1478 1478 1478 1477 1475 1474 1474 1475 1476 1475 1473 1473 1474 1474 1474 1473 1473 1475 1476 1477 1479 1480 1481 1483 1485 1486 1488 1488 1489 1490 1490 1491 1491 1491 1492 1492 1491 1491 1491 1490 1490 1489 1489 1489 1489 1489 1489 1489 1489 1488 1488 1488 1487 1487 1486 1486 1485 1484 1484 1483 1483 1483 1483 1483 1483 1483 1483 1484 1484 1484 1484 1484
1493 1494 1491 1487 1488 1486 1484 1492 1500 1494 1482 1475 1475 1477 1479 1479 1479 1478 1477 1476 1477 1477 1477 1476 1475 1474 1474 1475 1475 1475 1475 1477 1478 1478 1479 1480 1481 1483 1484 1486 1487 1488 1489 1489 1490 1490 1490 1491 1491 1490 1490 1490 1489 1488 1488 1488 1487 1487 1487 1487 1486 1486 1486 1486 1486 1485 1485 1484 1483 1483 1482 1481 1481 1481 1480 1480 1480 1480 1480 1480 1480 1480 1480 1481 1481 1481
1492 1493 1490 1488 1489 1488 1487 1493 1495 1485 1476 1475 1477 1477 1479 1480 1479 1479 1479 1478 1480 1480 1478 1477 1476 1475 1476 1477 1477 1477 1477 1478 1478 1479 1480 1480 1481 1483 1484 1485 1486 1487 1488 1488 1488 1489 1489 1489 1489 1489 1489 1488 1488 1488 1488 1487 1486 1486 1485 1485 1484 1484 1483 1483 1482 1482 1482 1481 1480 1479 1479 1478 1478 1478 1477 1477 1477 1477 1476 1477 1477 1477 1477 1477 1477 1478
1490 1490 1489 1488 1487 1487 1487 1484 1480 1476 1476 1476 1477 1478 1481 1481 1480 1481 1480 1478 1479 1480 1479 1478 1477 1477 1478 1478 1478 1478 1478 1477 1477 1479 1480 1481 1482 1483 1484 1485 1486 1486 1486 1487 1487 1487 1487 1487 1487 1487 1487 1486 1486 1486 1486 1485 1485 1484 1483 1483 1482 1482 1481 1481 1480 1479 1479 1478 1477 1477 1476 1475 1475 1475 1474 1474 1474 1474 1473 1473 1473 1474 1474 1474 1474 1475
1489 1488 1488 1489 1486 1485 1486 1483 1479 1480 1478 1475 1477 1481 1483 1483 1482 1484 1482 1479 1479 1481 1480 1479 1479 1479 1479 1479 1479 1479 1478 1476 1475 1478 1481 1482 1482 1484 1484 1484 1485 1485 1485 1485 1485 1485 1486 1486 1485 1485 1485 1485 1484 1484 1484 1483 1483 1482 1482 1481 1480 1480 1479 1479 1478 1477 1477 1476 1475 1474 1473 1472 1472 1471 1471 1471 1471 1471 1470 1470 1470 1470 1470 1471 1471 1472
1490 1488 1488 1489 1486 1485 1488 1488 1484 1481 1477 1475 1480 1483 1483 1484 1484 1484 1483 1480 1480 1483 1482 1481 1481 1481 1481 1481 1480 1479 1477 1475 1472 1475 1481 1483 1482 1483 1483 1483 1483 1483 1483 1483 1483 1483 1483 1483 1483 1483 1482 1482 1481 1481 1481 1481 1480 1480 1479 1478 1478 1477 1477 1476 1475 1474 1474 1473 1472 1471 1470 1469 1468 1468 1468 1467 1467 1467 1467 1467 1467 1467 1467 1468 1469 1469
1489 1488 1488 1489 1487 1484 1487 1487 1481 1476 1475 1479 1483 1484 1483 1484 1486 1486 1484 1482 1484 1485 1484 1482 1483 1482 1482 1482 1481 1478 1476 1474 1473 1475 1480 1482 1481 1482 1482 1482 1482 1481 1481 1481 1481 1481 1481 1480 1480 1480 1479 1479 1479 1478 1478 1478 1477 1476 1476 1475 1475 1474 1473 1473 1472 1471 1470 1469 1468 1467 1467 1466 1465 1464 1464 1464 1464 1464 1464 1463 1463 1463 1464 1464 1465 1466
1486 1488 1487 1487 1486 1483 1484 1485 1480 1475 1477 1483 1484 1484 1485 1486 1486 1486 1484 1484 1487 1487 1485 1485 1485 1483 1483 1483 1481 1479 1477 1477 1478 1478 1480 1481 1481 1481 1481 1480 1480 1480 1479 1479 1478 1478 1478 1477 1477 1477 1476 1476 1476 1475 1475 1475 1474 1473 1472 1472 1471 1470 1469 1469 1468 1467 1466 1465 1465 1464 1463 1463 1462 1461 1461 1461 1460 1460 1460 1460 1460 1460 1460 1460 1461 1462
1488 1490 1489 1487 1486 1483 1481 1483 1481 1478 1481 1486 1485 1485 1487 1487 1486 1486 1486 1488 1489 1487 1485 1486 1485 1484 1484 1483 1482 1481 1480 1480 1480 1479 1479 1479 1479 1479 1479 1478 1477 1477 1476 1476 1475 1475 1474 1474 1474 1473 1473 1473 1473 1473 1473 1472 1471 1470 1469 1468 1467 1466 1466 1465 1464 1463 1462 1461 1461 1460 1459 1459 1458 1458 1457 1457 1457 1457 1457 1457 1457 1457 1456 1456 1457 1459
1492 1493 1490 1485 1485 1485 1484 1485 1485 1483 1484 1488 1487 1486 1488 1488 1486 1487 1488 1488 1487 1486 1486 1486 1485 1484 1484 1482 1482 1482 1480 1480 1479 1479 1478 1478 1477 1477 1477 1476 1475 1475 1474 1473 1473 1472 1472 1471 1470 1470 1470 1471 1471 1470 1470 1469 1468 1467 1466 1464 1464 1463 1462 1461 1459 1458 1457 1457 1456 1456 1455 1455 1454 1454 1453 1453 1453 1453 1453 1453 1453 1453 1452 1453 1454 1456
1492 1494 1491 1485 1485 1488 1487 1485 1486 1486 1486 1489 1489 1488 1489 1490 1489 1488 1487 1486 1486 1486 1485 1484 1484 1484 1483 1482 1482 1481 1480 1479 1478 1477 1477 1476 1476 1475 1475 1474 1474 1473 1473 1472 1472 1471 1470 1469 1468 1468 1468 1468 1468 1467 1466 1465 1464 1463 1462 1461 1460 1459 1457 1456 1455 1454 1453 1453 1452 1451 1451 1450 1450 1450 1450 1450 1450 1449 1449 1449 1449 1449 1449 1451 1452 1454
1491 1493 1494 1491 1489 1491 1489 1485 1485 1487 1487 1488 1490 1489 1489 1490 1489 1488 1487 1486 1486 1485 1484 1483 1483 1482 1482 1482 1481 1479 1479 1478 1477 1476 1475 1474 1474 1473 1472 1472 1472 1471 1470 1470 1469 1468 1468 1466 1466 1465 1465 1464 1464 1463 1462 1461 1460 1459 1458 1457 1456 1455 1453 1452 1451 1450 1449 1448 1447 1447 1447 1446 1446 1446 1446 1446 1446 1445 1445 1445 1445 1446 1447 1448 1449 1451
1492 1495 1497 1495 1492 1492 1490 1487 1488 1488 1487 1487 1489 1489 1488 1488 1487 1487 1486 1485 1485 1484 1483 1482 1481 1480 1480 1480 1478 1477 1477 1476 1475 1474 1473 1472 1471 1470 1470 1469 1468 1468 1467 1466 1466 1466 1465 1463 1463 1462 1461 1460 1460 1459 1458 1457 1456 1455 1454 1453 1452 1451 1449 1448 1447 1445 1444 1443 1442 1442 1442 1442 1442 1442 1442 1441 1441 1441 1441 1442 1442 1444 1445 1446 1448 1451
1492 1496 1497 1495 1494 1493 1490 1487 1487 1489 1488 1488 1488 1487 1486 1485 1485 1485 1485 1484 1483 1483 1482 1481 1479 1479 1478 1477 1476 1474 1473 1472 1472 1471 1470 1469 1468 1467 1466 1465 1465 1464 1464 1463 1463 1462 1461 1460 1459 1459 1458 1457 1456 1455 1454 1453 1452 1451 1450 1449 1447 1446 1445 1443 1441 1440 1438 1437 1437 1437 1437 1437 1437 1437 1437 1437 1437 1438 1438 1439 1440 1442 1444 1446 1449 1451
1494 1498 1497 1493 1493 1493 1491 1488 1487 1488 1487 1487 1486 1485 1484 1483 1483 1483 1483 1483 1482 1481 1480 1479 1477 1476 1475 1474 1473 1471 1469 1469 1468 1467 1466 1466 1465 1463 1463 1462 1461 1461 1460 1460 1459 1459 1457 1457 1456 1455 1454 1453 1453 1452 1451 1449 1448 1447 1445 1444 1443 1441 1439 1437 1435 1434 1432 1432 1432 1432 1432 1432 1432 1433 1433 1434 1435 1436 1436 1438 1440 1443 1446 1449 1451 1453
1496 1497 1495 1493 1493 1491 1488 1487 1486 1486 1485 1485 1484 1483 1483 1483 1482 1481 1481 1480 1479 1478 1477 1476 1475 1473 1472 1471 1470 1468 1466 1465 1465 1464 1463 1462 1461 1460 1459 1458 1457 1457 1457 1456 1456 1455 1454 1453 1452 1451 1451 1450 1449 1448 1447 1446 1445 1443 1441 1439 1438 1436 1433 1431 1429 1427 1426 1426 1426 1426 1427 1428 1429 1430 1431 1432 1434 1436 1438 1441 1444 1446 1449 1452 1454 1455
1496 1495 1494 1495 1494 1490 1487 1487 1488 1488 1485 1483 1483 1482 1481 1481 1480 1479 1477 1476 1475 1474 1473 1472 1470 1469 1468 1467 1466 1465 1463 1462 1461 1461 1459 1458 1457 1456 1455 1455 1454 1453 1453 1453 1452 1451 1450 1449 1448 1448 1447 1446 1446 1445 1443 1442 1441 1439 1437 1435 1432 1429 1427 1424 1423 1422 1421 1421 1422 1422 1423 1425 1426 1428 1430 1432 1434 1437 1441 1444 1448 1450 1451 1453 1455 1457
1497 1496 1496 1496 1494 1491 1489 1489 1490 1488 1485 1482 1482 1481 1479 1478 1477 1476 1474 1473 1471 1470 1469 1468 1466 1465 1464 1463 1462 1461 1460 1458 1458 1457 1456 1454 1454 1453 1452 1452 1451 1450 1449 1449 1448 1447 1446 1445 1445 1444 1443 1443 1442 1442 1440 1439 1437 1435 1434 1431 1428 1425 1423 1421 1420 1419 1419 1419 1420 1421 1423 1425 1427 1429 1432 1434 1437 1439 1442 1446 1449 1451 1453 1455 1457 1459